Regional Weather Roundup
Issued by NWS New Orleans/Baton Rouge, LA

Current Version | Previous Version | Text Only | Print | Product List | Glossary On
Versions: 1 2 3 4 5 6 7 8 9 10 11 12 13 14 15 16 17 18 19 20 21 22 23 24 25 26 27 28 29 30 31 32 33 34 35 36 37 38 39 40 41 42 43 44 45 46 47 48 49 50
000
ASUS44 KLIX 180610
RWRLIX
NEW ORLEANS REGIONAL WEATHER ROUNDUP
NATIONAL WEATHER SERVICE NEW ORLEANS LA
100 AM CDT FRI APR 18 2014

NOTE: "FAIR" INDICATES FEW OR NO CLOUDS BELOW 12,000 FEET WITH NO
      SIGNIFICANT WEATHER AND/OR OBSTRUCTIONS TO VISIBILITY.
      SKY/WX - SKY CONDITION AND SIGNIFICANT WEATHER.
      TMP - AIR TEMPERATURE.     DP    - DEWPOINT TEMPERATURE.
      RH  - RELATIVE HUMIDITY.   PRES  - PRESSURE.
      HI  - HEAT INDEX.          WCI   - WIND CHILL INDEX.

*  THESE STATIONS ARE NOT NWS OR FAA STATIONS AND ARE NOT UNDER
   NWS QUALITY CONTROL.

LAZ038-040-048-061>063-065>067-069-180700-
SOUTHEAST LOUISIANA

CITY           SKY/WX    TMP DP  RH WIND       PRES   REMARKS
N.O. AUDUBON     N/A     66 N/A N/A MISG        N/A
6HR MIN TEMP:  63; 6HR MAX TEMP:  66;

N.O. INTL ARPT MOCLDY    64  59  83 E10G22    30.10F
6HR MIN TEMP:  63; 6HR MAX TEMP:  64; 6HR PCP: TRACE;

N.O. LAKEFRONT   N/A     63  60  90 E21       30.10F
6HR MIN TEMP:  63; 6HR MAX TEMP:  64; 6HR PCP:  0.02;

N.O. DOWNTOWN* CLOUDY    63  55  77 NE3       30.10F
6HR MIN TEMP:  63; 6HR MAX TEMP:  63; 6HR PCP:  0.01;

SLIDELL        CLOUDY    62  58  86 E7        30.11F
6HR MIN TEMP:  61; 6HR MAX TEMP:  62; 6HR PCP:  0.03;

BATON ROUGE    CLOUDY    63  57  81 VRB3      30.13S
6HR MIN TEMP:  61; 6HR MAX TEMP:  64;

BOOTHVILLE     CLOUDY    63  61  93 NE10      30.09F
6HR MIN TEMP:  62; 6HR MAX TEMP:  64; 6HR PCP:  0.37;

BELLE CHASSE     N/A     63  58  83 E16       30.09F
6HR MIN TEMP:  62; 6HR MAX TEMP:  63;

BOGALUSA*        N/A     64  56  75 E6        30.15S
6HR MIN TEMP:  62; 6HR MAX TEMP:  65;

GALLIANO*      CLOUDY    64  61  88 NE14G20   30.09F
6HR MIN TEMP:  63; 6HR MAX TEMP:  64;

NEW ROADS*     CLOUDY    60  57  89 N6        30.14F
6HR MIN TEMP:  60; 6HR MAX TEMP:  64;

GONZALES*      CLOUDY    64  60  88 CALM      30.12R
6HR MIN TEMP:  63; 6HR MAX TEMP:  64;

HAMMOND*       CLOUDY    61  55  82 CALM      30.13F
HOUMA*           N/A     63  58  83 E10G18    30.10S
6HR MIN TEMP:  63; 6HR MAX TEMP:  64;

PORT FOURCHON* CLOUDY    64  61  88 NE15G22   30.10S

$$

MSZ070-080>082-180700-
SOUTHERN MISSISSIPPI

CITY           SKY/WX    TMP DP  RH WIND       PRES   REMARKS
MCCOMB           N/A     59  54  83 VRB5      30.14F
6HR MIN TEMP:  59; 6HR MAX TEMP:  63;

GULFPORT       RAIN      63  59  87 NE9       30.13F FOG
6HR MIN TEMP:  63; 6HR MAX TEMP:  68; 6HR PCP:  0.06;

BILOXI         LGT RAIN  61  61 100 NE8       30.13F
6HR MIN TEMP:  61; 6HR MAX TEMP:  65; 6HR PCP:  0.05;

PASCAGOULA     RAIN      61  59  93 NE6       30.14R FOG
6HR MIN TEMP:  61; 6HR MAX TEMP:  65; 6HR PCP:  0.42;


$$

COASTAL OBSERVATIONS
LAKE AND NEARSHORE STATIONS

STATION/POSITION TIME  TEMP    WIND        PRES    WAVE
                       AIR SEA DIR/SP/G            HT/PER
                 (UTC) (F)     (DEG/KT/KT) (MB)    (FT/S)
PASCAGOULA       0600   62      50/ 11/ 18 1019.3
WAVELAND YACHT   0600   61 66   70/ 12/ 13 1019.3
GRAND ISLE       0600   64 66   70/ 20/ 25 1018.5
SOUTHWEST PASS   0600   65 58   40/ 15/ 20 1018.4
NEW CANAL        0600   63 63   80/ 12/ 18 1019.5
SHELL BEACH      0600   63 61   60/ 20/ 23 1018.8

OFFSHORE STATIONS

STATION/POSITION TIME  TEMP    WIND        PRES    WAVE
                       AIR SEA DIR/SP/G            HT/PER
                 (UTC) (F)     (DEG/KT/KT) (MB)    (FT/S)
64 S DAUPHIN ISL 0542   65 71   40/ 23/ 27 1018.2

$$




USA.gov is the U.S. government's official web portal to all federal, state and local government web resources and services.